Location: Roc des P�zouls
(43.9667°N, 3.5500°E)
Time: 22:33:54
(UTC+00:00)

Lacrosse 5 - Pass Details

Date: 14 November 2019
Orbit: 715 x 724 km, 57.0° (Epoch: 30 November)

Event Time Altitude Azimuth Distance (km) Brightness Sun altitude
Exits shadow 03:56:32 60° 103° (ESE) 826 2.3 -29.2°
Drops below altitude 10° 04:01:04 10° 53° (NE) 2,208 5.0 -28.4°
Sets 04:03:28 0° 50° (NE) 3,130 5.9 -27.9°
